Time,TemperatureF,DewpointF,PressureIn,WindDirection,WindDirectionDegrees,WindSpeedMPH,WindSpeedGustMPH,Humidity,HourlyPrecipIn,Conditions,Clouds,dailyrainin,SoftwareType,DateUTC
2013-02-07 00:02:00,42.0,29.0,-100.00,East,95,6.0,9.0,58,-99.99,,,-99.99,,2013-02-07 06:02:00,
2013-02-07 00:11:00,43.0,29.0,-100.00,SE,130,6.0,6.0,57,-99.99,,,-99.99,,2013-02-07 06:11:00,
2013-02-07 00:22:00,43.0,29.0,-100.00,SE,130,6.0,6.0,57,-99.99,,,-99.99,,2013-02-07 06:22:00,
2013-02-07 00:43:00,43.0,28.0,-100.00,ESE,120,6.0,9.0,56,-99.99,,,-99.99,,2013-02-07 06:43:00,
2013-02-07 00:52:00,43.0,29.0,-100.00,ESE,120,6.0,9.0,56,-99.99,,,-99.99,,2013-02-07 06:52:00,
2013-02-07 01:01:00,43.0,29.0,-100.00,ESE,120,6.0,9.0,56,-99.99,,,-99.99,,2013-02-07 07:01:00,
2013-02-07 01:11:00,43.0,28.0,-100.00,ESE,115,3.0,6.0,55,-99.99,,,-99.99,,2013-02-07 07:11:00,
2013-02-07 01:22:00,43.0,28.0,-100.00,SE,130,2.0,4.0,54,-99.99,,,-99.99,,2013-02-07 07:22:00,
2013-02-07 01:32:00,43.0,28.0,-100.00,WSW,240,0.0,1.0,55,-99.99,,,-99.99,,2013-02-07 07:32:00,
2013-02-07 01:42:00,43.0,28.0,-100.00,WSW,240,0.0,1.0,55,-99.99,,,-99.99,,2013-02-07 07:42:00,
2013-02-07 01:52:00,42.0,28.0,-100.00,SE,140,2.0,3.0,57,-99.99,,,-99.99,,2013-02-07 07:52:00,
2013-02-07 02:01:00,42.0,28.0,-100.00,SE,140,2.0,3.0,57,-99.99,,,-99.99,,2013-02-07 08:01:00,
2013-02-07 02:11:00,42.0,28.0,-100.00,SSE,150,4.0,6.0,57,-99.99,,,-99.99,,2013-02-07 08:11:00,
2013-02-07 02:21:00,42.0,28.0,-100.00,SE,130,2.0,3.0,57,-99.99,,,-99.99,,2013-02-07 08:21:00,
2013-02-07 02:32:00,42.0,28.0,-100.00,SE,130,2.0,3.0,57,-99.99,,,-99.99,,2013-02-07 08:32:00,
2013-02-07 02:42:00,42.0,28.0,-100.00,SSE,150,3.0,3.0,57,-99.99,,,-99.99,,2013-02-07 08:42:00,
2013-02-07 02:52:00,42.0,28.0,-100.00,SSE,155,6.0,8.0,57,-99.99,,,-99.99,,2013-02-07 08:52:00,
2013-02-07 03:01:00,40.0,27.0,-100.00,SSE,160,2.0,4.0,59,-99.99,,,-99.99,,2013-02-07 09:01:00,
2013-02-07 03:02:00,42.0,28.0,-100.00,SSE,155,6.0,8.0,57,-99.99,,,-99.99,,2013-02-07 09:02:00,
2013-02-07 03:11:00,42.0,28.0,-100.00,SSE,160,1.0,3.0,56,-99.99,,,-99.99,,2013-02-07 09:11:00,
2013-02-07 03:21:00,41.0,27.0,-100.00,SE,135,2.0,3.0,57,-99.99,,,-99.99,,2013-02-07 09:21:00,
2013-02-07 03:32:00,41.0,27.0,-100.00,SE,135,2.0,3.0,57,-99.99,,,-99.99,,2013-02-07 09:32:00,
2013-02-07 03:41:00,40.0,27.0,-100.00,SSE,160,2.0,4.0,59,-99.99,,,-99.99,,2013-02-07 09:41:00,
2013-02-07 03:52:00,40.0,27.0,-100.00,SSE,160,2.0,4.0,59,-99.99,,,-99.99,,2013-02-07 09:52:00,
2013-02-07 04:11:00,39.0,27.0,-100.00,SSE,150,1.0,1.0,62,-99.99,,,-99.99,,2013-02-07 10:11:00,
2013-02-07 04:22:00,38.0,27.0,-100.00,SE,125,2.0,3.0,64,-99.99,,,-99.99,,2013-02-07 10:22:00,
2013-02-07 04:32:00,38.0,27.0,-100.00,SE,125,2.0,3.0,64,-99.99,,,-99.99,,2013-02-07 10:32:00,
2013-02-07 04:42:00,38.0,27.0,-100.00,SE,140,2.0,3.0,64,-99.99,,,-99.99,,2013-02-07 10:42:00,
2013-02-07 04:52:00,39.0,28.0,-100.00,ESE,110,4.0,8.0,64,-99.99,,,-99.99,,2013-02-07 10:52:00,
2013-02-07 05:01:00,39.0,28.0,-100.00,ESE,110,4.0,8.0,64,-99.99,,,-99.99,,2013-02-07 11:01:00,
2013-02-07 05:11:00,40.0,28.0,-100.00,SSE,150,1.0,3.0,62,-99.99,,,-99.99,,2013-02-07 11:11:00,
2013-02-07 05:23:00,40.0,28.0,-100.00,SSE,155,1.0,2.0,62,-99.99,,,-99.99,,2013-02-07 11:23:00,
2013-02-07 05:32:00,40.0,28.0,-100.00,SSE,155,1.0,2.0,62,-99.99,,,-99.99,,2013-02-07 11:32:00,
2013-02-07 05:44:00,39.0,27.0,-100.00,ESE,110,2.0,2.0,63,-99.99,,,-99.99,,2013-02-07 11:44:00,
2013-02-07 05:53:00,38.0,27.0,-100.00,SE,125,1.0,2.0,64,-99.99,,,-99.99,,2013-02-07 11:53:00,
2013-02-07 06:02:00,38.0,27.0,-100.00,SE,125,1.0,2.0,64,-99.99,,,-99.99,,2013-02-07 12:02:00,
2013-02-07 06:11:00,37.0,27.0,-100.00,East,100,0.0,1.0,66,-99.99,,,-99.99,,2013-02-07 12:11:00,
2013-02-07 06:22:00,36.0,26.0,-100.00,West,265,0.0,2.0,68,-99.99,,,-99.99,,2013-02-07 12:22:00,
2013-02-07 06:32:00,36.0,26.0,-100.00,West,265,0.0,2.0,68,-99.99,,,-99.99,,2013-02-07 12:32:00,
2013-02-07 06:42:00,35.0,27.0,-100.00,West,280,0.0,2.0,71,-99.99,,,-99.99,,2013-02-07 12:42:00,
2013-02-07 06:53:00,33.0,26.0,-100.00,SSE,160,3.0,4.0,74,-99.99,,,-99.99,,2013-02-07 12:53:00,
2013-02-07 07:03:00,33.0,26.0,-100.00,SSE,160,3.0,4.0,74,-99.99,,,-99.99,,2013-02-07 13:03:00,
2013-02-07 07:12:00,33.0,27.0,-100.00,South,170,4.0,4.0,78,-99.99,,,-99.99,,2013-02-07 13:12:00,
2013-02-07 07:22:00,35.0,29.0,-100.00,ESE,120,1.0,2.0,78,-99.99,,,-99.99,,2013-02-07 13:22:00,
2013-02-07 07:32:00,37.0,30.0,-100.00,NE,55,1.0,1.0,76,-99.99,,,-99.99,,2013-02-07 13:32:00,
2013-02-07 07:42:00,37.0,30.0,-100.00,NE,55,1.0,1.0,76,-99.99,,,-99.99,,2013-02-07 13:42:00,
2013-02-07 07:52:00,37.0,30.0,-100.00,ESE,115,0.0,2.0,75,-99.99,,,-99.99,,2013-02-07 13:52:00,
2013-02-07 08:01:00,37.0,30.0,-100.00,ESE,115,0.0,2.0,75,-99.99,,,-99.99,,2013-02-07 14:01:00,
2013-02-07 08:11:00,38.0,30.0,-100.00,North,355,0.0,0.0,73,-99.99,,,-99.99,,2013-02-07 14:11:00,
2013-02-07 08:22:00,39.0,30.0,-100.00,SE,125,0.0,0.0,71,-99.99,,,-99.99,,2013-02-07 14:22:00,
2013-02-07 08:32:00,39.0,30.0,-100.00,SE,125,0.0,0.0,71,-99.99,,,-99.99,,2013-02-07 14:32:00,
2013-02-07 08:42:00,40.0,31.0,-100.00,SE,125,0.0,0.0,68,-99.99,,,-99.99,,2013-02-07 14:42:00,
2013-02-07 08:52:00,42.0,31.0,-100.00,South,170,6.0,6.0,64,-99.99,,,-99.99,,2013-02-07 14:52:00,
2013-02-07 09:02:00,42.0,31.0,-100.00,South,170,6.0,6.0,64,-99.99,,,-99.99,,2013-02-07 15:02:00,
2013-02-07 09:11:00,46.0,31.0,-100.00,SE,145,6.0,6.0,56,-99.99,,,-99.99,,2013-02-07 15:11:00,
2013-02-07 09:22:00,50.0,31.0,-100.00,SE,125,4.0,6.0,48,-99.99,,,-99.99,,2013-02-07 15:22:00,
2013-02-07 09:42:00,52.0,31.0,-100.00,SE,135,6.0,9.0,44,-99.99,,,-99.99,,2013-02-07 15:42:00,
2013-02-07 09:52:00,54.0,31.0,-100.00,SE,135,3.0,6.0,42,-99.99,,,-99.99,,2013-02-07 15:52:00,
2013-02-07 10:11:00,55.0,31.0,-100.00,SSE,160,8.0,9.0,40,-99.99,,,-99.99,,2013-02-07 16:11:00,
2013-02-07 10:21:00,55.0,31.0,-100.00,SSE,165,12.0,16.0,40,-99.99,,,-99.99,,2013-02-07 16:21:00,
2013-02-07 10:42:00,56.0,33.0,-100.00,SSE,150,3.0,6.0,41,-99.99,,,-99.99,,2013-02-07 16:42:00,
2013-02-07 10:52:00,56.0,33.0,-100.00,SSE,160,6.0,10.0,41,-99.99,,,-99.99,,2013-02-07 16:52:00,
2013-02-07 11:01:00,56.0,33.0,-100.00,SSE,160,6.0,10.0,41,-99.99,,,-99.99,,2013-02-07 17:01:00,
2013-02-07 11:11:00,57.0,34.0,-100.00,SSW,200,10.0,16.0,42,-99.99,,,-99.99,,2013-02-07 17:11:00,
2013-02-07 11:21:00,58.0,35.0,-100.00,South,185,4.0,8.0,42,-99.99,,,-99.99,,2013-02-07 17:21:00,
2013-02-07 11:32:00,58.0,35.0,-100.00,South,185,4.0,8.0,42,-99.99,,,-99.99,,2013-02-07 17:32:00,
2013-02-07 11:43:00,59.0,36.0,-100.00,SSW,200,10.0,12.0,42,-99.99,,,-99.99,,2013-02-07 17:43:00,
2013-02-07 11:52:00,61.0,38.0,-100.00,SSW,200,11.0,14.0,43,-99.99,,,-99.99,,2013-02-07 17:52:00,
2013-02-07 12:01:00,61.0,38.0,-100.00,SSW,200,11.0,14.0,43,-99.99,,,-99.99,,2013-02-07 18:01:00,
2013-02-07 12:11:00,61.0,39.0,-100.00,South,175,8.0,10.0,43,-99.99,,,-99.99,,2013-02-07 18:11:00,
2013-02-07 12:23:00,62.0,38.0,-100.00,SSW,200,4.0,6.0,42,-99.99,,,-99.99,,2013-02-07 18:23:00,
2013-02-07 12:32:00,62.0,38.0,-100.00,SSW,200,4.0,6.0,42,-99.99,,,-99.99,,2013-02-07 18:32:00,
2013-02-07 12:42:00,62.0,39.0,-100.00,South,185,11.0,14.0,43,-99.99,,,-99.99,,2013-02-07 18:42:00,
2013-02-07 12:52:00,63.0,40.0,-100.00,SSE,155,9.0,12.0,42,-99.99,,,-99.99,,2013-02-07 18:52:00,
2013-02-07 13:01:00,63.0,40.0,-100.00,SSE,155,9.0,12.0,42,-99.99,,,-99.99,,2013-02-07 19:01:00,
2013-02-07 13:11:00,63.0,41.0,-100.00,SSW,200,9.0,12.0,44,-99.99,,,-99.99,,2013-02-07 19:11:00,
2013-02-07 13:22:00,62.0,41.0,-100.00,SSE,160,9.0,12.0,45,-99.99,,,-99.99,,2013-02-07 19:22:00,
2013-02-07 13:32:00,62.0,41.0,-100.00,SSE,160,9.0,12.0,45,-99.99,,,-99.99,,2013-02-07 19:32:00,
2013-02-07 13:42:00,64.0,42.0,-100.00,SSE,155,6.0,11.0,45,-99.99,,,-99.99,,2013-02-07 19:42:00,
2013-02-07 13:52:00,64.0,43.0,-100.00,SSE,160,9.0,14.0,46,-99.99,,,-99.99,,2013-02-07 19:52:00,
2013-02-07 14:01:00,64.0,43.0,-100.00,SSE,160,9.0,14.0,46,-99.99,,,-99.99,,2013-02-07 20:01:00,
2013-02-07 14:11:00,63.0,44.0,-100.00,SE,125,9.0,14.0,49,-99.99,,,-99.99,,2013-02-07 20:11:00,
2013-02-07 14:22:00,63.0,44.0,-100.00,South,175,12.0,16.0,50,-99.99,,,-99.99,,2013-02-07 20:22:00,
2013-02-07 14:32:00,64.0,45.0,-100.00,SSE,165,6.0,11.0,50,-99.99,,,-99.99,,2013-02-07 20:32:00,
2013-02-07 14:42:00,64.0,45.0,-100.00,SSE,165,6.0,11.0,50,-99.99,,,-99.99,,2013-02-07 20:42:00,
2013-02-07 14:52:00,64.0,44.0,-100.00,SSE,160,6.0,9.0,49,-99.99,,,-99.99,,2013-02-07 20:52:00,
2013-02-07 15:02:00,64.0,44.0,-100.00,SSE,160,6.0,9.0,49,-99.99,,,-99.99,,2013-02-07 21:02:00,
2013-02-07 15:11:00,62.0,44.0,-100.00,SSE,155,6.0,12.0,51,-99.99,,,-99.99,,2013-02-07 21:11:00,
2013-02-07 15:21:00,63.0,45.0,-100.00,South,170,10.0,14.0,51,-99.99,,,-99.99,,2013-02-07 21:21:00,
2013-02-07 15:32:00,63.0,45.0,-100.00,South,170,10.0,14.0,51,-99.99,,,-99.99,,2013-02-07 21:32:00,
2013-02-07 15:42:00,62.0,44.0,-100.00,SSE,165,6.0,9.0,52,-99.99,,,-99.99,,2013-02-07 21:42:00,
2013-02-07 15:52:00,61.0,45.0,-100.00,SE,125,4.0,9.0,54,-99.99,,,-99.99,,2013-02-07 21:52:00,
2013-02-07 16:02:00,61.0,45.0,-100.00,SE,125,4.0,9.0,54,-99.99,,,-99.99,,2013-02-07 22:02:00,
2013-02-07 16:11:00,62.0,45.0,-100.00,SSE,165,10.0,12.0,54,-99.99,,,-99.99,,2013-02-07 22:11:00,
2013-02-07 16:21:00,62.0,46.0,-100.00,South,175,6.0,11.0,56,-99.99,,,-99.99,,2013-02-07 22:21:00,
2013-02-07 16:32:00,62.0,46.0,-100.00,South,175,6.0,11.0,56,-99.99,,,-99.99,,2013-02-07 22:32:00,
2013-02-07 16:42:00,61.0,47.0,-100.00,South,190,8.0,12.0,59,-99.99,,,-99.99,,2013-02-07 22:42:00,
2013-02-07 16:52:00,62.0,48.0,-100.00,South,190,6.0,10.0,61,-99.99,,,-99.99,,2013-02-07 22:52:00,
2013-02-07 17:01:00,62.0,48.0,-100.00,South,190,6.0,10.0,61,-99.99,,,-99.99,,2013-02-07 23:01:00,
2013-02-07 17:11:00,61.0,49.0,-100.00,South,180,3.0,8.0,63,-99.99,,,-99.99,,2013-02-07 23:11:00,
2013-02-07 17:21:00,60.0,49.0,-100.00,South,170,8.0,12.0,66,-99.99,,,-99.99,,2013-02-07 23:21:00,
2013-02-07 17:32:00,60.0,49.0,-100.00,South,170,8.0,12.0,66,-99.99,,,-99.99,,2013-02-07 23:32:00,
2013-02-07 17:42:00,59.0,49.0,-100.00,South,170,9.0,12.0,69,-99.99,,,-99.99,,2013-02-07 23:42:00,
2013-02-07 17:52:00,59.0,49.0,-100.00,South,170,4.0,6.0,71,-99.99,,,-99.99,,2013-02-07 23:52:00,
2013-02-07 18:01:00,59.0,49.0,-100.00,South,170,4.0,6.0,71,-99.99,,,-99.99,,2013-02-08 00:01:00,
2013-02-07 18:11:00,58.0,50.0,-100.00,South,170,11.0,14.0,73,-99.99,,,-99.99,,2013-02-08 00:11:00,
2013-02-07 18:21:00,58.0,50.0,-100.00,South,170,4.0,9.0,75,-99.99,,,-99.99,,2013-02-08 00:21:00,
2013-02-07 18:32:00,58.0,50.0,-100.00,South,170,4.0,9.0,75,-99.99,,,-99.99,,2013-02-08 00:32:00,
2013-02-07 18:42:00,58.0,50.0,-100.00,South,180,8.0,10.0,76,-99.99,,,-99.99,,2013-02-08 00:42:00,
2013-02-07 18:52:00,58.0,50.0,-100.00,South,190,9.0,11.0,76,-99.99,,,-99.99,,2013-02-08 00:52:00,
2013-02-07 19:01:00,58.0,50.0,-100.00,South,190,9.0,11.0,76,-99.99,,,-99.99,,2013-02-08 01:01:00,
2013-02-07 19:11:00,57.0,51.0,-100.00,SW,235,4.0,6.0,78,-99.99,,,-99.99,,2013-02-08 01:11:00,
2013-02-07 19:21:00,57.0,51.0,-100.00,SW,215,3.0,4.0,80,-99.99,,,-99.99,,2013-02-08 01:21:00,
2013-02-07 19:31:00,57.0,51.0,-100.00,SW,215,3.0,4.0,80,-99.99,,,-99.99,,2013-02-08 01:31:00,
2013-02-07 19:41:00,56.0,52.0,-100.00,SW,225,2.0,3.0,86,-99.99,,,-99.99,,2013-02-08 01:41:00,
2013-02-07 19:52:00,55.0,52.0,-100.00,SW,235,1.0,3.0,88,-99.99,,,-99.99,,2013-02-08 01:52:00,
2013-02-07 20:01:00,55.0,52.0,-100.00,SW,235,1.0,3.0,88,-99.99,,,-99.99,,2013-02-08 02:01:00,
2013-02-07 20:11:00,55.0,52.0,-100.00,West,270,1.0,3.0,90,-99.99,,,-99.99,,2013-02-08 02:11:00,
2013-02-07 20:21:00,55.0,52.0,-100.00,WNW,290,2.0,3.0,90,-99.99,,,-99.99,,2013-02-08 02:21:00,
2013-02-07 20:32:00,55.0,52.0,-100.00,WNW,290,2.0,3.0,90,-99.99,,,-99.99,,2013-02-08 02:32:00,
2013-02-07 20:42:00,55.0,52.0,-100.00,West,280,6.0,6.0,91,-99.99,,,-99.99,,2013-02-08 02:42:00,
2013-02-07 20:52:00,54.0,52.0,-100.00,WNW,300,11.0,14.0,91,-99.99,,,-99.99,,2013-02-08 02:52:00,
2013-02-07 21:02:00,54.0,52.0,-100.00,WNW,300,11.0,14.0,91,-99.99,,,-99.99,,2013-02-08 03:02:00,
2013-02-07 21:12:00,54.0,52.0,-100.00,WNW,300,4.0,9.0,91,-99.99,,,-99.99,,2013-02-08 03:12:00,
2013-02-07 21:22:00,51.0,49.0,-100.00,NW,305,12.0,17.0,91,-99.99,,,-99.99,,2013-02-08 03:22:00,
2013-02-07 21:32:00,51.0,49.0,-100.00,NW,305,12.0,17.0,91,-99.99,,,-99.99,,2013-02-08 03:32:00,
2013-02-07 21:42:00,50.0,47.0,-100.00,NW,310,10.0,14.0,91,-99.99,,,-99.99,,2013-02-08 03:42:00,
2013-02-07 21:52:00,50.0,47.0,-100.00,WNW,300,10.0,12.0,90,-99.99,,,-99.99,,2013-02-08 03:52:00,
2013-02-07 22:02:00,50.0,47.0,-100.00,WNW,300,10.0,12.0,90,-99.99,,,-99.99,,2013-02-08 04:02:00,
2013-02-07 22:11:00,49.0,46.0,-100.00,WNW,300,11.0,17.0,90,-99.99,,,-99.99,,2013-02-08 04:11:00,
2013-02-07 22:21:00,49.0,46.0,-100.00,NW,305,8.0,12.0,91,-99.99,,,-99.99,,2013-02-08 04:21:00,
2013-02-07 22:32:00,49.0,46.0,-100.00,NW,305,8.0,12.0,91,-99.99,,,-99.99,,2013-02-08 04:32:00,
2013-02-07 22:42:00,49.0,46.0,-100.00,NW,305,9.0,14.0,91,-99.99,,,-99.99,,2013-02-08 04:42:00,
2013-02-07 22:52:00,48.0,46.0,-100.00,NW,305,12.0,16.0,91,-99.99,,,-99.99,,2013-02-08 04:52:00,
2013-02-07 23:02:00,48.0,46.0,-100.00,NW,305,12.0,16.0,91,-99.99,,,-99.99,,2013-02-08 05:02:00,
2013-02-07 23:12:00,48.0,45.0,-100.00,NNW,340,6.0,10.0,91,-99.99,,,-99.99,,2013-02-08 05:12:00,
2013-02-07 23:22:00,47.0,45.0,-100.00,NW,325,11.0,17.0,91,-99.99,,,-99.99,,2013-02-08 05:22:00,
2013-02-07 23:31:00,45.0,42.0,-100.00,NW,325,12.0,18.0,88,-99.99,,,-99.99,,2013-02-08 05:31:00,
2013-02-07 23:32:00,47.0,44.0,-100.00,NW,325,10.0,17.0,90,-99.99,,,-99.99,,2013-02-08 05:32:00,
2013-02-07 23:42:00,47.0,44.0,-100.00,NW,325,10.0,17.0,90,-99.99,,,-99.99,,2013-02-08 05:42:00,
2013-02-07 23:52:00,46.0,43.0,-100.00,NNW,340,12.0,18.0,89,-99.99,,,-99.99,,2013-02-08 05:52:00,